Change the Weather History Date:

Wednesday, January 23, 2013

  Actual Average Record
Temperature  
Mean Temperature 55 °F -  
Max Temperature 64 °F 56 °F 64 °F (2013)
Min Temperature 46 °F 29 °F 32 °F (2015)
Degree Days  
Heating Degree Days 10    
Growing Degree Days 5 (Base 50)    
Moisture  
Dew Point 19 °F    
Average Humidity 25    
Maximum Humidity 31    
Minimum Humidity 20    
Precipitation  
Precipitation 0.00 in - - ()
Sea Level Pressure  
Sea Level Pressure 30.29 in    
Wind  
Wind Speed 9 mph (NE)    
Max Wind Speed 16 mph    
Max Gust Speed 21 mph    
Visibility 10 miles    
Events      
Averages and records for this station are not official NWS values.
T = Trace of Precipitation, MM = Missing Value Source: NWS Daily Summary

Daily Weather History Graph

Daily Weather History Graph

Search for Another Location

Airport or City:

Trip Planner

Search our weather history database for the weather conditions in past years. The results will help you decide how hot, cold, wet, or windy it might be!

Date:

Astronomy

Jan. 23, 2013 Rise Set
Actual Time 7:31 AM MST 5:47 PM MST
Civil Twilight 7:04 AM MST 6:14 PM MST
Nautical Twilight 6:33 AM MST 6:45 PM MST
Astronomical Twilight 6:03 AM MST 7:15 PM MST
Moon 3:02 PM MST (1/23) 4:43 AM MST (1/23)
Length of Visible Light 11h 10m
Length of Day
10h 16m
Waxing Gibbous, 89% of the Moon is Illuminated
Jan 23
Waxing Gibbous
Jan 26
Full
Feb 3
Last Quarter
Feb 10
New
Feb 17
First Quarter

Hourly Weather History & Observations

Time (MST) Temp. Windchill Dew Point Humidity Pressure Visibility Wind Dir Wind Speed Gust Speed Precip Events Conditions
12:15 AM 51.8 °F - 15.8 °F 24% 30.28 in 10.0 mi NE 13.8 mph - N/A   Clear
12:35 AM 51.8 °F - 17.6 °F 26% 30.28 in 10.0 mi NE 12.7 mph - N/A   Clear
12:55 AM 51.8 °F - 15.8 °F 24% 30.28 in 10.0 mi NE 11.5 mph - N/A   Clear
1:15 AM 50.0 °F - 17.6 °F 28% 30.29 in 10.0 mi NE 15.0 mph - N/A   Clear
1:35 AM 50.0 °F - 15.8 °F 26% 30.29 in 10.0 mi NE 13.8 mph - N/A   Clear
1:55 AM 50.0 °F - 15.8 °F 26% 30.29 in 10.0 mi NE 11.5 mph - N/A   Clear
2:15 AM 50.0 °F - 15.8 °F 26% 30.28 in 10.0 mi NE 12.7 mph - N/A   Clear
2:35 AM 50.0 °F - 15.8 °F 26% 30.28 in 10.0 mi NE 15.0 mph 19.6 mph N/A   Clear
2:55 AM 50.0 °F - 15.8 °F 26% 30.28 in 10.0 mi NE 15.0 mph - N/A   Clear
3:15 AM 51.8 °F - 14.0 °F 22% 30.28 in 10.0 mi NE 13.8 mph 20.7 mph N/A   Clear
3:35 AM 50.0 °F - 14.0 °F 24% 30.29 in 10.0 mi NE 12.7 mph 17.3 mph N/A   Clear
3:55 AM 48.2 °F - 15.8 °F 27% 30.29 in 10.0 mi NE 15.0 mph 18.4 mph N/A   Clear
4:15 AM 50.0 °F - 14.0 °F 24% 30.30 in 10.0 mi ENE 12.7 mph - N/A   Clear
4:35 AM 50.0 °F - 14.0 °F 24% 30.29 in 10.0 mi ENE 12.7 mph - N/A   Clear
4:55 AM 50.0 °F - 14.0 °F 24% 30.28 in 10.0 mi NE 13.8 mph - N/A   Clear
5:15 AM 50.0 °F - 14.0 °F 24% 30.29 in 10.0 mi ENE 12.7 mph - N/A   Clear
5:35 AM 48.2 °F - 14.0 °F 25% 30.28 in 10.0 mi NE 10.4 mph - N/A   Clear
5:55 AM 48.2 °F - 14.0 °F 25% 30.29 in 10.0 mi ENE 11.5 mph - N/A   Clear
6:15 AM 48.2 °F - 14.0 °F 25% 30.29 in 10.0 mi NE 11.5 mph - N/A   Clear
6:35 AM 46.4 °F 41.1 °F 14.0 °F 27% 30.30 in 10.0 mi ENE 11.5 mph - N/A   Clear
6:55 AM 46.4 °F 41.5 °F 14.0 °F 27% 30.30 in 10.0 mi NE 10.4 mph - N/A   Clear
7:15 AM 46.4 °F 40.7 °F 12.2 °F 25% 30.30 in 10.0 mi NE 12.7 mph - N/A   Clear
7:35 AM 46.4 °F 39.8 °F 14.0 °F 27% 30.30 in 10.0 mi ENE 16.1 mph - N/A   Clear
7:55 AM 46.4 °F 40.4 °F 14.0 °F 27% 30.30 in 10.0 mi ENE 13.8 mph - N/A   Clear
8:15 AM 48.2 °F - 14.0 °F 25% 30.30 in 10.0 mi NE 12.7 mph - N/A   Clear
8:35 AM 50.0 °F - 14.0 °F 24% 30.31 in 10.0 mi ENE 8.1 mph - N/A   Clear
8:55 AM 50.0 °F - 14.0 °F 24% 30.32 in 10.0 mi ENE 10.4 mph - N/A   Clear
9:15 AM 50.0 °F - 14.0 °F 24% 30.33 in 10.0 mi NE 12.7 mph 16.1 mph N/A   Clear
9:35 AM 50.0 °F - 15.8 °F 26% 30.33 in 10.0 mi East 5.8 mph 16.1 mph N/A   Clear
9:55 AM 51.8 °F - 15.8 °F 24% 30.33 in 10.0 mi East 11.5 mph - N/A   Clear
10:15 AM 53.6 °F - 19.4 °F 26% 30.34 in 10.0 mi Calm Calm - N/A   Clear
10:35 AM 55.4 °F - 19.4 °F 25% 30.34 in 10.0 mi SE 4.6 mph - N/A   Clear
10:55 AM 55.4 °F - 19.4 °F 25% 30.34 in 10.0 mi South 3.5 mph - N/A   Clear
11:15 AM 57.2 °F - 21.2 °F 25% 30.34 in 10.0 mi Calm Calm - N/A   Clear
11:35 AM 57.2 °F - 21.2 °F 25% 30.34 in 10.0 mi Calm Calm - N/A   Clear
11:55 AM 55.4 °F - 21.2 °F 26% 30.33 in 10.0 mi Calm Calm - N/A   Clear
12:15 PM 59.0 °F - 21.2 °F 23% 30.32 in 10.0 mi Calm Calm - N/A   Clear
12:35 PM 59.0 °F - 21.2 °F 23% 30.31 in 10.0 mi Calm Calm - N/A   Clear
12:55 PM 59.0 °F - 21.2 °F 23% 30.30 in 10.0 mi Calm Calm - N/A   Clear
1:15 PM 60.8 °F - 21.2 °F 22% 30.29 in 10.0 mi Calm Calm - N/A   Clear
1:35 PM 60.8 °F - 21.2 °F 22% 30.28 in 10.0 mi Calm Calm - N/A   Clear
1:55 PM 60.8 °F - 23.0 °F 23% 30.28 in 10.0 mi West 3.5 mph - N/A   Clear
2:15 PM 62.6 °F - 23.0 °F 22% 30.27 in 10.0 mi Calm Calm - N/A   Clear
2:35 PM 64.4 °F - 23.0 °F 21% 30.26 in 10.0 mi Calm Calm - N/A   Clear
2:55 PM 64.4 °F - 23.0 °F 21% 30.26 in 10.0 mi Calm Calm - N/A   Clear
3:15 PM 62.6 °F - 21.2 °F 20% 30.26 in 10.0 mi Calm Calm - N/A   Clear
3:35 PM 62.6 °F - 21.2 °F 20% 30.25 in 10.0 mi Calm Calm - N/A   Clear
3:55 PM 62.6 °F - 23.0 °F 22% 30.25 in 10.0 mi Calm Calm - N/A   Clear
4:15 PM 62.6 °F - 23.0 °F 22% 30.25 in 10.0 mi Calm Calm - N/A   Clear
4:35 PM 64.4 °F - 23.0 °F 21% 30.25 in 10.0 mi SSE 3.5 mph - N/A   Clear
4:55 PM 62.6 °F - 23.0 °F 22% 30.25 in 10.0 mi Calm Calm - N/A   Clear
5:15 PM 62.6 °F - 23.0 °F 22% 30.25 in 10.0 mi Calm Calm - N/A   Clear
5:35 PM 60.8 °F - 23.0 °F 23% 30.25 in 10.0 mi Calm Calm - N/A   Clear
5:55 PM 60.8 °F - 23.0 °F 23% 30.26 in 10.0 mi Calm Calm - N/A   Clear
6:15 PM 60.8 °F - 23.0 °F 23% 30.25 in 10.0 mi Calm Calm - N/A   Clear
6:55 PM 59.0 °F - 24.8 °F 27% 30.25 in 10.0 mi Calm Calm - N/A   Clear
7:15 PM 59.0 °F - 23.0 °F 25% 30.26 in 10.0 mi Calm Calm - N/A   Clear
7:35 PM 59.0 °F - 24.8 °F 27% 30.26 in 10.0 mi Calm Calm - N/A   Clear
7:55 PM 59.0 °F - 24.8 °F 27% 30.27 in 10.0 mi Calm Calm - N/A   Clear
8:15 PM 57.2 °F - 24.8 °F 29% 30.27 in 10.0 mi Calm Calm - N/A   Clear
8:35 PM 57.2 °F - 23.0 °F 27% 30.27 in 10.0 mi NE 5.8 mph - N/A   Clear
8:55 PM 57.2 °F - 23.0 °F 27% 30.27 in 10.0 mi NE 5.8 mph - N/A   Clear
9:15 PM 55.4 °F - 23.0 °F 29% 30.27 in 10.0 mi NNE 9.2 mph - N/A   Clear
9:35 PM 55.4 °F - 23.0 °F 29% 30.27 in 10.0 mi NE 8.1 mph - N/A   Clear
9:55 PM 55.4 °F - 23.0 °F 29% 30.28 in 10.0 mi NNE 10.4 mph - N/A   Clear
10:15 PM 55.4 °F - 23.0 °F 29% 30.28 in 10.0 mi NE 11.5 mph - N/A   Clear
10:35 PM 55.4 °F - 23.0 °F 29% 30.28 in 10.0 mi NE 10.4 mph - N/A   Clear
10:55 PM 55.4 °F - 23.0 °F 29% 30.28 in 10.0 mi NE 9.2 mph - N/A   Clear
11:15 PM 55.4 °F - 24.8 °F 31% 30.28 in 10.0 mi NE 12.7 mph - N/A   Clear
11:35 PM 55.4 °F - 24.8 °F 31% 30.27 in 10.0 mi NE 9.2 mph - N/A   Clear
11:55 PM 55.4 °F - 24.8 °F 31% 30.28 in 10.0 mi NE 8.1 mph - N/A   Clear